When you browse on this site, cookies collect data to enhance your experience and personalize the content and advertising you see.
Visit our Privacy Policy to learn more. By continuing to use the site, you agree to this use of cookies and data.
  • In Germany
  • List of Countries
  • For 7 days
  • Water Temperature
  • Satellite Maps
  • Weather Map
  • Weather Widgets
  • user-avatar
    Login

    Hourly Weather Mauritius

    Today, 22 March, Friday

    Time Temperature Precipitation Wind Pressure Humidity
    00:00 +26°C° 0 mm 4 mps 722 mmHg 84%
    01:00 +26°C° 0 mm 4 mps 721 mmHg 84%
    02:00 +26°C° 0 mm 5 mps 721 mmHg 85%
    03:00 +26°C° 0 mm 5 mps 721 mmHg 85%
    04:00 +26°C° 0 mm 6 mps 721 mmHg 84%
    05:00 +26°C° 0 mm 5 mps 721 mmHg 84%
    06:00 +26°C° 0 mm 5 mps 721 mmHg 84%
    07:00 +26°C° 0 mm 5 mps 721 mmHg 84%
    08:00 +27°C° 0.1 mm 6 mps 721 mmHg 81%
    09:00 +28°C° 0.1 mm 6 mps 721 mmHg 77%
    10:00 +29°C° 0 mm 6 mps 722 mmHg 72%
    11:00 +29°C° 0.2 mm 6 mps 721 mmHg 71%
    12:00 +29°C° 0.2 mm 6 mps 721 mmHg 71%
    13:00 +29°C° 0.2 mm 6 mps 721 mmHg 70%
    14:00 +29°C° 0.4 mm 6 mps 721 mmHg 72%
    15:00 +29°C° 0.4 mm 6 mps 721 mmHg 73%
    16:00 +28°C° 0 mm 5 mps 720 mmHg 76%
    17:00 +28°C° 0.1 mm 5 mps 720 mmHg 78%
    18:00 +27°C° 0.1 mm 5 mps 720 mmHg 81%
    19:00 +26°C° 0.1 mm 5 mps 720 mmHg 84%
    20:00 +26°C° 0 mm 5 mps 720 mmHg 84%
    21:00 +26°C° 0 mm 5 mps 721 mmHg 84%
    22:00 +26°C° 0 mm 6 mps 721 mmHg 84%
    23:00 +26°C° 0.1 mm 6 mps 721 mmHg 84%

    Tomorrow, 23 March, Saturday

    Time Temperature Precipitation Wind Pressure Humidity
    00:00 +26°C° 0.1 mm 6 mps 721 mmHg 84%
    01:00 +26°C° 0.1 mm 6 mps 721 mmHg 84%
    02:00 +26°C° 0.1 mm 6 mps 720 mmHg 85%
    03:00 +26°C° 0.1 mm 5 mps 720 mmHg 85%
    04:00 +26°C° 0.1 mm 5 mps 719 mmHg 85%
    05:00 +26°C° 0.2 mm 5 mps 720 mmHg 85%
    06:00 +26°C° 0.2 mm 6 mps 720 mmHg 85%
    07:00 +26°C° 0.2 mm 6 mps 720 mmHg 86%
    08:00 +27°C° 0.1 mm 6 mps 720 mmHg 82%
    09:00 +28°C° 0.1 mm 6 mps 720 mmHg 79%
    10:00 +29°C° 0.1 mm 5 mps 720 mmHg 75%
    11:00 +29°C° 0.9 mm 6 mps 720 mmHg 76%
    12:00 +29°C° 0.9 mm 6 mps 720 mmHg 76%
    13:00 +29°C° 0.9 mm 7 mps 720 mmHg 77%
    14:00 +28°C° 0.8 mm 7 mps 720 mmHg 77%
    15:00 +28°C° 0.8 mm 7 mps 720 mmHg 77%
    16:00 +28°C° 0.8 mm 6 mps 719 mmHg 78%
    17:00 +28°C° 0.4 mm 6 mps 719 mmHg 80%
    18:00 +27°C° 0.4 mm 6 mps 719 mmHg 82%
    19:00 +26°C° 0.4 mm 6 mps 719 mmHg 85%
    20:00 +26°C° 0.8 mm 6 mps 719 mmHg 85%
    21:00 +26°C° 0.8 mm 6 mps 720 mmHg 85%
    22:00 +26°C° 0.8 mm 6 mps 720 mmHg 85%
    23:00 +26°C° 0.1 mm 6 mps 720 mmHg 85%

    Day after tomorrow, 24 March, Sunday

    Time Temperature Precipitation Wind Pressure Humidity
    00:00 +26°C° 0.1 mm 6 mps 720 mmHg 85%
    01:00 +26°C° 0.1 mm 6 mps 719 mmHg 85%
    02:00 +26°C° 0.3 mm 6 mps 719 mmHg 86%
    03:00 +26°C° 0.3 mm 6 mps 719 mmHg 86%
    04:00 +26°C° 0.3 mm 7 mps 718 mmHg 86%
    05:00 +26°C° 0.4 mm 7 mps 718 mmHg 85%
    06:00 +26°C° 0.4 mm 7 mps 719 mmHg 85%
    07:00 +26°C° 0.4 mm 7 mps 719 mmHg 84%
    08:00 +27°C° 0.2 mm 7 mps 719 mmHg 81%
    09:00 +27°C° 0.2 mm 8 mps 719 mmHg 78%
    10:00 +28°C° 0.2 mm 8 mps 720 mmHg 76%
    11:00 +28°C° 0.5 mm 8 mps 719 mmHg 75%
    12:00 +28°C° 0.5 mm 8 mps 719 mmHg 75%
    13:00 +29°C° 0.5 mm 7 mps 719 mmHg 75%
    14:00 +28°C° 0.6 mm 7 mps 718 mmHg 78%
    15:00 +27°C° 0.6 mm 7 mps 718 mmHg 80%
    16:00 +27°C° 0.6 mm 7 mps 717 mmHg 83%
    17:00 +26°C° 0.4 mm 7 mps 717 mmHg 84%
    18:00 +26°C° 0.4 mm 7 mps 718 mmHg 84%
    19:00 +26°C° 0.4 mm 7 mps 718 mmHg 85%
    20:00 +26°C° 0.4 mm 7 mps 718 mmHg 85%
    21:00 +26°C° 0.4 mm 7 mps 718 mmHg 85%
    22:00 +26°C° 0.4 mm 7 mps 719 mmHg 85%
    23:00 +26°C° 0.7 mm 7 mps 718 mmHg 86%

    25 March, Monday

    Time Temperature Precipitation Wind Pressure Humidity
    00:00 +26°C° 0.7 mm 7 mps 718 mmHg 86%
    01:00 +26°C° 0.7 mm 7 mps 718 mmHg 86%
    02:00 +26°C° 0.3 mm 7 mps 717 mmHg 86%
    03:00 +26°C° 0.3 mm 7 mps 717 mmHg 86%
    04:00 +26°C° 0.3 mm 7 mps 716 mmHg 85%
    05:00 +26°C° 0.4 mm 7 mps 717 mmHg 85%
    06:00 +26°C° 0.4 mm 7 mps 717 mmHg 85%
    07:00 +26°C° 0.4 mm 7 mps 717 mmHg 85%
    08:00 +27°C° 0.2 mm 7 mps 717 mmHg 82%
    09:00 +27°C° 0.2 mm 7 mps 718 mmHg 80%
    10:00 +28°C° 0.2 mm 7 mps 718 mmHg 77%
    11:00 +28°C° 0.6 mm 7 mps 718 mmHg 77%
    12:00 +28°C° 0.6 mm 7 mps 717 mmHg 76%
    13:00 +28°C° 0.6 mm 7 mps 717 mmHg 76%
    14:00 +28°C° 0.5 mm 7 mps 717 mmHg 76%
    15:00 +28°C° 0.5 mm 7 mps 716 mmHg 76%
    16:00 +28°C° 0.5 mm 7 mps 716 mmHg 76%
    17:00 +28°C° 0.1 mm 7 mps 716 mmHg 77%
    18:00 +27°C° 0.1 mm 6 mps 717 mmHg 79%
    19:00 +27°C° 0.1 mm 6 mps 717 mmHg 81%
    20:00 +27°C° 0 mm 6 mps 717 mmHg 81%
    21:00 +26°C° 0 mm 6 mps 718 mmHg 82%
    22:00 +26°C° 0 mm 5 mps 718 mmHg 82%
    23:00 +26°C° 0 mm 5 mps 718 mmHg 83%

    26 March, Tuesday

    Time Temperature Precipitation Wind Pressure Humidity
    00:00 +26°C° 0 mm 5 mps 717 mmHg 83%
    01:00 +26°C° 0 mm 5 mps 717 mmHg 84%
    02:00 +26°C° 0.1 mm 5 mps 717 mmHg 84%
    03:00 +26°C° 0.1 mm 5 mps 717 mmHg 84%
    04:00 +26°C° 0.1 mm 5 mps 717 mmHg 84%
    05:00 +26°C° 0 mm 5 mps 717 mmHg 84%
    06:00 +26°C° 0 mm 4 mps 718 mmHg 84%
    07:00 +26°C° 0 mm 4 mps 718 mmHg 84%
    08:00 +27°C° 0 mm 4 mps 719 mmHg 80%
    09:00 +28°C° 0 mm 4 mps 719 mmHg 76%
    10:00 +29°C° 0 mm 5 mps 720 mmHg 72%
    11:00 +29°C° 0.1 mm 4 mps 720 mmHg 69%
    12:00 +30°C° 0.1 mm 4 mps 719 mmHg 67%
    13:00 +30°C° 0.1 mm 4 mps 719 mmHg 64%
    14:00 +30°C° 0 mm 4 mps 719 mmHg 66%
    15:00 +30°C° 0 mm 4 mps 719 mmHg 68%
    16:00 +29°C° 0 mm 5 mps 719 mmHg 70%
    17:00 +28°C° 0.1 mm 5 mps 719 mmHg 74%
    18:00 +28°C° 0.1 mm 4 mps 720 mmHg 78%
    19:00 +27°C° 0.1 mm 4 mps 720 mmHg 82%
    20:00 +27°C° 0 mm 4 mps 720 mmHg 82%
    21:00 +27°C° 0 mm 3 mps 720 mmHg 83%
    22:00 +26°C° 0 mm 3 mps 721 mmHg 84%
    23:00 +26°C° 0 mm 3 mps 720 mmHg 84%

    27 March, Wednesday

    Time Temperature Precipitation Wind Pressure Humidity
    00:00 +26°C° 0 mm 3 mps 720 mmHg 84%
    01:00 +26°C° 0 mm 3 mps 720 mmHg 84%
    02:00 +26°C° 0 mm 3 mps 720 mmHg 84%
    03:00 +26°C° 0 mm 3 mps 719 mmHg 84%
    04:00 +26°C° 0 mm 3 mps 719 mmHg 84%
    05:00 +26°C° 0 mm 3 mps 719 mmHg 84%
    06:00 +26°C° 0 mm 3 mps 720 mmHg 84%
    07:00 +26°C° 0 mm 3 mps 720 mmHg 84%
    08:00 +27°C° 0 mm 3 mps 720 mmHg 80%
    09:00 +28°C° 0 mm 3 mps 721 mmHg 76%
    10:00 +29°C° 0 mm 3 mps 721 mmHg 72%
    11:00 +29°C° 0.1 mm 3 mps 721 mmHg 70%
    12:00 +30°C° 0.1 mm 3 mps 720 mmHg 68%
    13:00 +30°C° 0.1 mm 3 mps 720 mmHg 67%
    14:00 +30°C° 0.1 mm 4 mps 720 mmHg 68%
    15:00 +30°C° 0.1 mm 4 mps 719 mmHg 68%
    16:00 +29°C° 0.1 mm 4 mps 719 mmHg 69%
    17:00 +29°C° 0.1 mm 4 mps 720 mmHg 73%
    18:00 +28°C° 0.1 mm 4 mps 720 mmHg 77%
    19:00 +27°C° 0.1 mm 4 mps 720 mmHg 81%
    20:00 +27°C° 0.1 mm 4 mps 721 mmHg 82%
    21:00 +27°C° 0.1 mm 4 mps 721 mmHg 83%
    22:00 +26°C° 0.1 mm 4 mps 721 mmHg 84%
    23:00 +26°C° 0 mm 4 mps 721 mmHg 84%
    Show more